New Bern, NC

9:20 PM EDT on October 18, 2017 (GMT -0400)
Craven County Regional

Weather History for KEWN - August, 2013

Change the Weather History Date:

Tuesday, August 27, 2013

  Actual Average Record
Temperature  
Mean Temperature 77 °F 78 °F  
Max Temperature 88 °F 87 °F 96 °F (1954)
Min Temperature 66 °F 69 °F 59 °F (1984)
Degree Days  
Heating Degree Days 0 0  
Month to date heating degree days 0 0  
Since 1 June heating degree days 0 1  
Since 1 July heating degree days 0 0  
Cooling Degree Days 12 13  
Month to date cooling degree days 375 387  
Year to date cooling degree days 1557 1477  
Since 1 June cooling degree days 1301 1234  
Growing Degree Days 26 (Base 50)    
Moisture  
Dew Point 65 °F    
Average Humidity 71    
Maximum Humidity 93    
Minimum Humidity 48    
Precipitation  
Precipitation 0.00 in 0.20 in 9.72 in (2011)
Month to date precipitation 5.84 5.87  
Year to date precipitation 29.13 36.02  
Snow  
Snow 0.00 in - - ()
Month to date snowfall 0.0  
Since 1 July snowfall 0.0  
Snow Depth 0.00 in    
Sea Level Pressure  
Sea Level Pressure 30.05 in    
Wind  
Wind Speed 6 mph (SW)    
Max Wind Speed 13 mph    
Max Gust Speed 18 mph    
Visibility 10 miles    
Events      
T = Trace of Precipitation, MM = Missing Value Source: NWS Daily Summary

Daily Weather History Graph

Daily Weather History Graph

Search for Another Location

Airport or City:

Trip Planner

Search our weather history database for the weather conditions in past years. The results will help you decide how hot, cold, wet, or windy it might be!

Date:

Astronomy

Aug. 27, 2013 Rise Set
Actual Time 6:37 AM EDT 7:41 PM EDT
Civil Twilight 6:11 AM EDT 8:07 PM EDT
Nautical Twilight 5:40 AM EDT 8:38 PM EDT
Astronomical Twilight 5:07 AM EDT 9:10 PM EDT
Moon 11:50 PM EDT (8/27) 1:16 PM EDT (8/27)
Length of Visible Light 13h 56m
Length of Day
13h 04m
Waning Gibbous, 57% of the Moon is Illuminated
Aug 27
Waning Gibbous
Aug 28
Last Quarter
Sep 5
New
Sep 12
First Quarter
Sep 19
Full

Hourly Weather History & Observations

Time (EDT) Temp. Heat Index Dew Point Humidity Pressure Visibility Wind Dir Wind Speed Gust Speed Precip Events Conditions
12:54 AM 69.1 °F - 64.0 °F 84% 30.14 in 10.0 mi Calm Calm - N/A   Clear
1:54 AM 66.9 °F - 64.0 °F 90% 30.13 in 10.0 mi SW 4.6 mph - N/A   Clear
2:54 AM 66.0 °F - 63.0 °F 90% 30.11 in 10.0 mi SW 4.6 mph - N/A   Clear
3:54 AM 66.9 °F - 63.0 °F 87% 30.10 in 10.0 mi Calm Calm - N/A   Clear
4:54 AM 66.0 °F - 63.0 °F 90% 30.09 in 10.0 mi SW 3.5 mph - N/A   Clear
5:54 AM 66.0 °F - 62.1 °F 87% 30.09 in 10.0 mi SW 4.6 mph - N/A   Clear
6:54 AM 66.0 °F - 63.0 °F 90% 30.09 in 10.0 mi WSW 5.8 mph - N/A   Clear
7:54 AM 68.0 °F - 63.0 °F 84% 30.09 in 10.0 mi WSW 4.6 mph - N/A   Clear
8:54 AM 75.0 °F - 63.0 °F 66% 30.09 in 10.0 mi West 5.8 mph - N/A   Clear
9:54 AM 78.1 °F - 63.0 °F 60% 30.09 in 10.0 mi West 6.9 mph - N/A   Clear
10:54 AM 82.0 °F 83.0 °F 62.1 °F 51% 30.07 in 10.0 mi West 6.9 mph - N/A   Clear
11:54 AM 82.9 °F 84.4 °F 64.0 °F 53% 30.06 in 10.0 mi WSW 8.1 mph - N/A   Clear
12:54 PM 84.9 °F 86.6 °F 64.9 °F 51% 30.04 in 10.0 mi SSW 9.2 mph - N/A   Clear
1:54 PM 86.0 °F 87.6 °F 64.9 °F 49% 30.04 in 10.0 mi WSW 6.9 mph - N/A   Clear
2:54 PM 87.1 °F 89.2 °F 66.0 °F 49% 30.01 in 10.0 mi SW 11.5 mph - N/A   Clear
3:54 PM 87.1 °F 89.9 °F 66.9 °F 51% 30.00 in 10.0 mi SSW 9.2 mph - N/A   Partly Cloudy
4:54 PM 87.1 °F 91.3 °F 69.1 °F 55% 29.99 in 10.0 mi SSW 9.2 mph - N/A   Clear
5:54 PM 82.9 °F 85.8 °F 68.0 °F 60% 29.99 in 10.0 mi SW 8.1 mph 18.4 mph N/A   Clear
6:54 PM 80.1 °F 82.7 °F 68.0 °F 67% 30.00 in 10.0 mi SSW 6.9 mph - N/A   Clear
7:54 PM 77.0 °F - 66.9 °F 71% 30.00 in 10.0 mi South 5.8 mph - N/A   Clear
8:15 PM 75.2 °F - 66.2 °F 73% 30.00 in 10.0 mi SSW 6.9 mph - N/A   Partly Cloudy
8:54 PM 75.0 °F - 66.0 °F 73% 30.01 in 10.0 mi SSW 6.9 mph - N/A   Clear
9:54 PM 75.0 °F - 66.0 °F 73% 30.01 in 10.0 mi SSW 8.1 mph - N/A   Clear
10:54 PM 73.9 °F - 66.0 °F 76% 30.02 in 10.0 mi SW 5.8 mph - N/A   Clear
11:54 PM 73.0 °F - 64.9 °F 76% 30.02 in 10.0 mi SW 6.9 mph - N/A   Clear